Weather History for Branson, MO

Change the Weather History Date:

Friday, November 23, 2012

  Actual Average (KHRO) Record (KHRO)
Temperature  
Mean Temperature 44 °F 45 °F  
Max Temperature 55 °F 55 °F 76 °F (1904)
Min Temperature 32 °F 35 °F 12 °F (1929)
Degree Days  
Heating Degree Days 22 20  
Month to date heating degree days 350  
Since 1 July heating degree days 615  
Cooling Degree Days 0 0  
Month to date cooling degree days 0  
Year to date cooling degree days 1412  
Moisture  
Dew Point 28 °F    
Average Humidity 58    
Maximum Humidity 88    
Minimum Humidity 42    
Precipitation  
Precipitation 0.00 in 0.13 in 2.07 in (2001)
Month to date precipitation 3.31  
Year to date precipitation 40.02  
Snow  
Snow 0.00 in 0.00 in 6.00 in (1971)
Month to date snowfall 0.0  
Since 1 July snowfall 0.1  
Since 1 September snowfall 0.1  
Snow Depth -    
Sea Level Pressure  
Sea Level Pressure 30.33 in    
Wind  
Wind Speed 12 mph (NW)    
Max Wind Speed 21 mph    
Max Gust Speed 29 mph    
Visibility 10 miles    
Events Rain    
T = Trace of Precipitation, MM = Missing Value Source: NWS Daily Summary

Daily Weather History Graph

Daily Weather History Graph

Search for Another Location

Airport:

Trip Planner

Search our weather history database for the weather conditions in past years. The results will help you decide how hot, cold, wet, or windy it might be!

Date:

Astronomy

Nov. 23, 2012 Rise Set
Actual Time 6:59 AM CST 4:59 PM CST
Civil Twilight 6:31 AM CST 5:27 PM CST
Nautical Twilight 5:59 AM CST 5:59 PM CST
Astronomical Twilight 5:28 AM CST 6:29 PM CST
Moon 2:08 PM CST (11/23) 2:24 AM CST (11/23)
Length of Visible Light 10h 56m
Length of Day
10h 00m
Waxing Gibbous, 80% of the Moon is Illuminated
Nov 23
Waxing Gibbous
Nov 28
Full
Dec 6
Last Quarter
Dec 13
New
Dec 19
First Quarter

Hourly Weather History & Observations

Time (CST) Temp. Windchill Dew Point Humidity Pressure Visibility Wind Dir Wind Speed Gust Speed Precip Events Conditions
12:15 AM 55.4 °F - 50.0 °F 82% 30.17 in 8.0 mi NNW 13.8 mph - N/A Rain Light Rain
12:35 AM 53.6 °F - 48.2 °F 82% 30.19 in 10.0 mi NNW 11.5 mph 19.6 mph N/A   Overcast
12:55 AM 51.8 °F - 48.2 °F 88% 30.20 in 9.0 mi NNW 12.7 mph 21.9 mph N/A Rain Light Rain
1:15 AM 51.8 °F - 41.0 °F 67% 30.20 in 10.0 mi NNW 19.6 mph 25.3 mph N/A   Overcast
1:35 AM 51.8 °F - 39.2 °F 62% 30.22 in 10.0 mi NNW 13.8 mph 18.4 mph N/A   Overcast
1:55 AM 50.0 °F - 37.4 °F 62% 30.23 in 10.0 mi NNW 9.2 mph - N/A   Overcast
2:15 AM 50.0 °F - 37.4 °F 62% 30.24 in 10.0 mi North 13.8 mph 19.6 mph N/A   Mostly Cloudy
2:35 AM 48.2 °F - 35.6 °F 62% 30.25 in 10.0 mi NNW 9.2 mph - N/A   Partly Cloudy
2:55 AM 48.2 °F - 35.6 °F 62% 30.27 in 10.0 mi NNW 9.2 mph - N/A   Partly Cloudy
3:15 AM 46.4 °F 41.9 °F 35.6 °F 66% 30.27 in 10.0 mi NNW 9.2 mph - N/A   Scattered Clouds
3:35 AM 46.4 °F 41.9 °F 33.8 °F 62% 30.28 in 10.0 mi NNW 9.2 mph - N/A   Mostly Cloudy
3:55 AM 46.4 °F 41.5 °F 32.0 °F 57% 30.28 in 10.0 mi NNW 10.4 mph 16.1 mph N/A   Mostly Cloudy
4:15 AM 44.6 °F 39.2 °F 32.0 °F 61% 30.29 in 10.0 mi NNW 10.4 mph - N/A   Scattered Clouds
4:35 AM 44.6 °F 40.2 °F 32.0 °F 61% 30.30 in 10.0 mi NW 8.1 mph - N/A   Partly Cloudy
4:55 AM 44.6 °F 40.2 °F 32.0 °F 61% 30.30 in 10.0 mi NW 8.1 mph - N/A   Partly Cloudy
5:15 AM 44.6 °F 40.2 °F 32.0 °F 61% 30.31 in 10.0 mi NW 8.1 mph - N/A   Clear
5:35 AM 44.6 °F 43.1 °F 32.0 °F 61% 30.31 in 10.0 mi NW 3.5 mph - N/A   Clear
6:50 AM 41.0 °F 36.4 °F 32.0 °F 70% 30.33 in 10.0 mi WNW 6.9 mph - N/A   Clear
7:50 AM 42.8 °F 36.6 °F 32.0 °F 66% 30.34 in 10.0 mi WNW 11.5 mph - N/A   Clear
8:47 AM 46.4 °F 41.1 °F 32.0 °F 57% 30.35 in 10.0 mi WNW 11.5 mph 18.4 mph N/A   Clear
9:51 AM 44.6 °F 37.8 °F 26.6 °F 49% 30.37 in 10.0 mi NW 15.0 mph 24.2 mph N/A   Clear
10:45 AM 44.6 °F 38.8 °F 26.6 °F 49% 30.39 in 10.0 mi WNW 11.5 mph 23.0 mph N/A   Clear
11:45 AM 41.0 °F 33.1 °F 19.4 °F 42% 30.39 in 10.0 mi WNW 15.0 mph 27.6 mph N/A   Clear
12:53 PM 41.0 °F 32.2 °F 21.2 °F 45% 30.38 in 10.0 mi NNW 18.4 mph 27.6 mph N/A   Clear
1:48 PM 41.0 °F 31.6 °F 19.4 °F 42% 30.38 in 10.0 mi NW 20.7 mph 28.8 mph N/A   Clear
2:51 PM 41.0 °F 32.5 °F 21.2 °F 45% 30.38 in 10.0 mi NW 17.3 mph 25.3 mph N/A   Clear
3:47 PM 41.0 °F 33.9 °F 21.2 °F 45% 30.38 in 10.0 mi NW 12.7 mph 26.5 mph N/A   Clear
4:45 PM 39.2 °F 32.0 °F 21.2 °F 49% 30.38 in 10.0 mi NW 11.5 mph 19.6 mph N/A   Clear
5:47 PM 37.4 °F 30.8 °F 21.2 °F 52% 30.39 in 10.0 mi NW 9.2 mph - N/A   Clear
6:52 PM 35.6 °F 27.1 °F 19.4 °F 52% 30.40 in 10.0 mi NW 12.7 mph - N/A   Clear
7:51 PM 35.6 °F 28.6 °F 19.4 °F 52% 30.40 in 10.0 mi NW 9.2 mph - N/A   Clear
8:15 PM 33.8 °F 27.0 °F 19.4 °F 56% 30.40 in 10.0 mi NW 8.1 mph - N/A   Clear
8:35 PM 33.8 °F 25.8 °F 19.4 °F 56% 30.40 in 10.0 mi NW 10.4 mph - N/A   Clear
8:47 PM 33.8 °F 26.4 °F 19.4 °F 56% 30.40 in 10.0 mi NW 9.2 mph - N/A   Clear
8:55 PM 33.8 °F 27.0 °F 19.4 °F 56% 30.40 in 10.0 mi NW 8.1 mph - N/A   Clear
9:15 PM 32.0 °F 24.2 °F 19.4 °F 60% 30.40 in 10.0 mi NW 9.2 mph - N/A   Clear
9:35 PM 32.0 °F 24.8 °F 19.4 °F 60% 30.40 in 10.0 mi NW 8.1 mph - N/A   Clear
9:55 PM 32.0 °F 24.8 °F 17.6 °F 55% 30.41 in 10.0 mi NW 8.1 mph - N/A   Clear
10:15 PM 32.0 °F 26.4 °F 17.6 °F 55% 30.41 in 10.0 mi NW 5.8 mph - N/A   Clear
10:55 PM 32.0 °F 24.2 °F 17.6 °F 55% 30.40 in 10.0 mi NW 9.2 mph - N/A   Clear
11:15 PM 32.0 °F 25.6 °F 15.8 °F 51% 30.40 in 10.0 mi NW 6.9 mph - N/A   Clear
11:35 PM 32.0 °F 24.2 °F 15.8 °F 51% 30.40 in 10.0 mi NW 9.2 mph - N/A   Clear